www.pogodaiklimat.ru

Погода и климат >> Архив погоды >> Россия >> Чукотка >> Омолон


ПОГОДА в Омолоне

АРХИВ ПОГОДЫ в Омолоне

Время (UTC), дата Ветер
(напр.,м/с)
 
Видим.   Явления Облачность Т
(С)
Тd
(С)
f
(%)
Тe
(С)
Тes
(С)
Комфортность P
(гПа)
Po
(гПа)
Тmin
(С)
Tmax
(С)
R
(мм)
R24
(мм)
S
(см)
06 16.01 СЗ 4
{8}
15 км слабый снег {метель} 10/6 600 м
[Sc Ac trans Cs]
-32.0 -36.2 66 -44 -44 опасность
обморожения
1011.3 974.7
09 16.01 З 2
{6}
22 км снежные кристаллы {метель} 10/4 1000 м
[Sc Ac trans Cs]
-32.9 -37.1 66 -41 -41 опасность
обморожения
1012.2 975.4 -31.1 0.8
12 16.01 З 3
{6}
12 км слабый снег {метель} 10/0
[Ac trans Cs]
-32.7 -36.9 66 -43 -43 опасность
обморожения
1012.6 975.8
15 16.01 Ю 1
{5}
50 км {снег} 5/0
[Ci fib]
-37.5 -41.5 66 -42 -42 опасность
обморожения
1014.1 976.6
18 16.01 Ю 1
{3}
6000 м дымка {снег} 5/0
[Ci fib]
-41.1 -45.5 62 -46 -46 опасность
обморожения
1016.0 977.8
21 16.01 В 1
{3}
4800 м дымка 3/0
[Ci fib]
-45.4 -50.4 57 -51 -51 опасность
обморожения
1017.8 979.0 -45.8 0.2 70
00 17.01 штиль 0
{2}
4400 м дымка 3/0
[Ci fib]
-46.0 -51.1 56 -46 -46 опасность
обморожения
1019.1 980.1 -46.5
03 17.01 штиль 0
{1}
6000 м дымка 1/0
[Ci fib]
-43.7 -48.6 58 -44 -44 опасность
обморожения
1019.6 980.8
06 17.01 штиль 0
{1}
4800 м дымка 3/0
[Ci fib]
-48.4 -53.8 53 -48 -48 опасность
обморожения
1021.3 981.8
09 17.01 штиль 0
{1}
4200 м дымка 5/0
[Ci fib]
-47.3 -52.5 55 -47 -47 опасность
обморожения
1022.0 982.7 -43.7
12 17.01 штиль 0
{1}
4300 м дымка 4/0
[Ci fib]
-48.8 -54.2 53 -49 -49 опасность
обморожения
1023.6 983.8
15 17.01 штиль 0 4200 м дымка 3/0
[Ci fib]
-50.2 -55.9 51 -50 -50 опасность
обморожения
1024.0 984.0
18 17.01 штиль 0 4400 м дымка ясно -51.8 -57.7 49 -52 -52 опасность
обморожения
1025.6 985.3
21 17.01 штиль 0
{1}
4200 м дымка ясно -51.7 -57.4 50 -52 -52 опасность
обморожения
1026.6 986.3 -52.3 70
00 18.01 штиль 0
{1}
4100 м дымка ясно -51.5 -57.3 50 -52 -51 опасность
обморожения
1027.8 987.3 -53.0
03 18.01 штиль 0
{1}
4200 м дымка ясно -49.5 -55.0 52 -50 -49 опасность
обморожения
1027.5 987.4
06 18.01 штиль 0
{1}
4100 м дымка 3/0
[Ac trans]
-50.7 -56.4 51 -51 -51 опасность
обморожения
1029.0 988.7
09 18.01 штиль 0
{2}
4200 м дымка 3/0
[Ac trans]
-52.4 -58.3 49 -52 -52 опасность
обморожения
1030.3 989.7 -49.0
12 18.01 штиль 0
{1}
4100 м дымка ясно -52.2 -58.0 49 -52 -52 опасность
обморожения
1031.1 990.5
15 18.01 штиль 0
{1}
4200 м дымка 3/0
[Ci fib]
-51.6 -57.3 50 -52 -52 опасность
обморожения
1031.5 990.9
18 18.01 штиль 0
{1}
4200 м дымка ясно -51.9 -57.7 49 -52 -52 опасность
обморожения
1032.2 991.6
21 18.01 ЮВ 1
{1}
4300 м дымка ясно -52.5 -58.5 48 -59 -59 опасность
обморожения
1032.8 992.0 -53.4 70
00 19.01 штиль 0
{2}
4100 м дымка ясно -50.8 -56.4 51 -51 -51 опасность
обморожения
1032.8 992.4
03 19.01 штиль 0
{1}
4500 м дымка ясно -47.5 -52.8 54 -48 -47 опасность
обморожения
1031.9 992.1
06 19.01 штиль 0
{2}
5000 м дымка ясно -49.0 -54.6 52 -49 -49 опасность
обморожения
1032.7 992.6
09 19.01 штиль 0
{1}
5000 м дымка ясно -49.7 -55.2 52 -50 -50 опасность
обморожения
1033.0 992.7 -47.3
12 19.01 штиль 0
{2}
5000 м дымка ясно -49.5 -55.0 52 -50 -50 опасность
обморожения
1033.3 993.0
15 19.01 штиль 0
{2}
4500 м дымка ясно -49.6 -55.1 52 -50 -50 опасность
обморожения
1032.9 992.6
18 19.01 штиль 0
{1}
4500 м дымка ясно -49.9 -55.6 51 -50 -50 опасность
обморожения
1033.1 992.8
21 19.01 штиль 0
{2}
5000 м дымка ясно -49.4 -55.0 52 -49 -49 опасность
обморожения
1033.3 993.2 -50.6 70
00 20.01 штиль 0
{2}
5000 м дымка ясно -48.4 -53.9 53 -48 -48 опасность
обморожения
1033.8 993.8
03 20.01 штиль 0
{2}
6000 м дымка 3/0
[Ci fib]
-46.4 -51.6 55 -46 -46 опасность
обморожения
1034.1 994.5
06 20.01 СВ 1
{2}
6000 м дымка 3/0
[Ci fib]
-47.4 -52.8 54 -53 -53 опасность
обморожения
1035.0 995.2
09 20.01 штиль 0
{2}
5000 м дымка 3/0
[Ci fib]
-45.8 -50.9 56 -46 -46 опасность
обморожения
1034.7 995.1 -45.8
12 20.01 штиль 0
{1}
6000 м дымка 8/0
[Ci fib]
-42.9 -47.7 59 -43 -43 опасность
обморожения
1034.2 995.1
15 20.01 СЗ 1
{2}
8000 м дымка 9/0
[Ac trans Cs]
-39.0 -43.4 63 -44 -44 опасность
обморожения
1032.2 993.8
18 20.01 штиль 0
{1}
14 км слабый снег 10/0
[Ac trans Cs]
-36.3 -40.3 66 -36 -36 опасность
обморожения
1031.1 993.2
21 20.01 штиль 0
{1}
21 км снежные кристаллы 10/0
[Ac trans Cs]
-34.1 -38.0 68 -34 -34 опасность
обморожения
1030.6 993.0 -45.8 0.8 70
00 21.01 штиль 0
{1}
50 км {снег} 10/6 1000 м
[Sc Ac und]
-31.8 -35.5 70 -32 -32 опасность
обморожения
1030.2 992.9
03 21.01 штиль 0
{2}
50 км 10/8 1000 м
[Sc Ac und]
-29.9 -33.4 71 -30 -30 1028.3 991.4
06 21.01 СЗ 1
{1}
14 км слабый снег 10/6 1000 м
[Sc Ac trans Cs]
-28.9 -32.4 72 -33 -33 опасность
обморожения
1028.2 991.5
09 21.01 С 1
{2}
50 км {снег} 10/8 1000 м
[Sc Ac und]
-27.9 -31.4 72 -32 -32 опасность
обморожения
1027.3 990.8 -27.8 0.2
12 21.01 З 1
{2}
22 км снежные кристаллы 10/8 1000 м
[Sc Ac trans Cs]
-26.7 -29.9 74 -30 -30 1026.1 989.7
15 21.01 С 1
{2}
18 км слабый снег 10/8 1000 м
[Sc Ac trans Cs]
-25.8 -28.8 76 -29 -29 1025.1 989.0
18 21.01 С 1
{2}
13 км слабый снег 10/8 1000 м
[Sc Ac trans Cs]
-24.6 -27.5 77 -28 -28 1024.7 988.7
21 21.01 штиль 0
{1}
50 км {снег} 10/5 1000 м
[Sc Ac und]
-24.0 -26.7 78 -24 -24 1023.2 987.4 -27.9 0.6 71
00 22.01 штиль 0
{1}
50 км {снег} 9/0
[Ac trans]
-23.8 -26.6 78 -24 -24 1022.8 987.0
03 22.01 штиль 0
{1}
50 км 9/6 1000 м
[Sc Ac trans]
-21.9 -24.9 77 -22 -22 1021.1 985.7
06 22.01 штиль 0
{1}
50 км 9/4 1000 м
[Sc Ac trans]
-22.8 -25.4 79 -23 -23 1020.3 984.7
09 22.01 СЗ 1
{2}
16 км слабый снег 10/8 600 м
[Sc Ac trans Cs]
-20.4 -22.8 81 -23 -23 1019.4 984.2 -20.4 0.0
12 22.01 штиль 0
{2}
50 км {снег} 10/6 1000 м
[Sc Ac trans Ci fib]
-20.5 -22.8 82 -21 -21 1018.5 983.4
15 22.01 штиль 0
{2}
50 км 9/0
[Ac trans]
-24.8 -27.3 80 -25 -25 1019.2 983.4
18 22.01 штиль 0
{2}
50 км 10/5 1000 м
[Sc Ac trans Ci fib]
-22.8 -25.2 81 -23 -23 1019.7 984.1
21 22.01 штиль 0
{2}
50 км 8/0
[Ac trans]
-25.7 -28.1 80 -26 -26 1020.8 984.8 -26.8 0.0 71
00 23.01 штиль 0
{3}
50 км 5/0
[Ci fib]
-21.7 -24.2 80 -22 -22 1020.8 985.4
03 23.01 З 1
{3}
50 км 5/0
[Ci fib]
-20.6 -23.5 77 -24 -24 1021.0 985.7

 

Местоположение метеостанции Омолон (Чукотка, Россия): широта 65.23 долгота 160.50 высота над уровнем моря 260 м.

В архиве по умолчанию представлена погода в Омолоне за последнюю неделю. Архивные данные за месяц целиком и за предыдущие месяцы, начиная с января 2011 года, Вы можете получить, выбрав интересующий диапазон дат из раскрывающегося списка и нажав кнопку "Ввод!".

Внимание! Время в таблицах - всемирное. Для получения местного времени необходимо прибавить поправку, которая в Омолоне равна 12 ч.

Смотрите также архив погоды в соседних городах и на ближайших метеорологических станциях:

Погода в Кегали (Магаданская область, Россия) (112 км)
Погода в Верхне-Пенжино (Камчатский край, Россия) (209 км)
Погода в Баимке (Чукотка, Россия) (222 км)
Погода в Лабазной (Магаданская область, Россия) (235 км)
Погода в Коркодоне (Магаданская область, Россия) (315 км)
Погода в Константиновской (Чукотка, Россия) (326 км)
Погода в Балыгычане (Магаданская область, Россия) (339 км)
Погода в Анюйске (Чукотка, Россия) (350 км)
Погода на Островном (Чукотка, Россия) (358 км)
Погода в Эвенске (Магаданская область, Россия) (374 км)

Пояснения к столбцам:

Ветер - указаны скорость ветра в м/с - средняя за 10 мин, порывы в срок и между сроками (в фигурных скобках) и направление, откуда дует ветер: С - северный, СВ - северо-восточный, В - восточный, ЮВ - юго-восточный, Ю - южный, ЮЗ - юго-западный, З - западный, СЗ - северо-западный.
Видимость - горизонтальная дальность видимости в метрах или километрах. При видимости от 1 до 10 км при отсутствии осадков обычно наблюдается дымка, при ухудшении видимости до 1 км и менее - туман. В сухую погоду видимость может ухудшаться дымом, пылью или мглою.
Явления - указаны атмосферные явления, наблюдавшиеся в срок или в последний час перед сроком; фигурными скобками обозначены явления, наблюдавшиеся между сроками (за 1-3 часа до срока); квадратными скобками обозначены град или гололедные отложения с указанием их диаметра в мм.
Облачность - указаны через наклонную черту общая и нижняя облачность в баллах и высота нижней границы облаков в метрах; квадратными скобками обозначены формы облаков: Ci - перистые, Cs - перисто-слоистые, Cc - перисто-кучевые, Ac - высококучевые, As - высокослоистые, Sc - слоисто-кучевые, Ns - слоисто-дождевые, Cu - кучевые, Cb - кучево-дождевые. Подробнее классификацию облаков см. в Атласе облаков (PDF).
T - Температура воздуха - температура, измеренная на высоте 2 м над землей.
Td - Температура точки росы - температура, при понижении до которой содержащийся в воздухе водяной пар достигнет насыщения.
f - Относительная влажность воздуха - влажноcть воздуха, измеренная на высоте 2 м над землей.
Te - Эффективная температура - температура, которую ощущает одетый по сезону человек в тени. Характеристика душности погоды. При расчете учитывается влияние влажности воздуха и скорости ветра на теплоощущения человека.
Tes - Эффективная температура на солнце - температура, которую ощущает человек, с поправкой на солнечный нагрев. Характеристика знойности погоды. Зависит от высоты солнца над горизонтом, облачности и скорости ветра. Ночью, в пасмурную погоду, а также при ветре 12 м/с и более поправка равна нулю.
P - Атмосферное давление - приведенное к уровню моря атмосферное давление.
Po - Атмосферное давление - измеренное на уровне метеостанции атмосферное давление.
Tmin - Минимальная температура - минимум температуры воздуха на высоте 2 м над землей.
Tmax - Максимальная температура - максимум температуры воздуха на высоте 2 м над землей.
R - Количество осадков - Количество выпавших осадков за период времени, мм. При наведении курсора мыши на число - период времени, за который выпало указанное количество осадков.
R24 - Количество осадков - Количество выпавших осадков за 24 часа, мм.
S - Снежный покров - Высота снежного покрова, см. При наведении курсора мыши на число - состояние снежного покрова и степень покрытия местности в баллах.